TimeEST,TemperatureF,Dew PointF,Humidity,Sea Level PressureIn,VisibilityMPH,Wind Direction,Wind SpeedMPH,Gust SpeedMPH,PrecipitationIn,Events,Conditions,WindDirDegrees,DateUTC
12:53 AM,-2.0,-9.9,69,29.96,10.0,SE,5.8,-,N/A,,Overcast,140,2013-02-06 05:53:00
1:53 AM,-0.9,-9.9,66,29.96,10.0,SSE,4.6,-,N/A,,Overcast,150,2013-02-06 06:53:00
2:53 AM,-0.9,-9.9,66,29.94,10.0,SE,5.8,-,N/A,,Overcast,140,2013-02-06 07:53:00
3:53 AM,-0.9,-9.9,66,29.94,10.0,ESE,5.8,-,N/A,,Overcast,120,2013-02-06 08:53:00
4:53 AM,-0.9,-9.0,69,29.93,10.0,ESE,6.9,-,N/A,,Overcast,110,2013-02-06 09:53:00
5:53 AM,-0.9,-9.0,69,29.93,10.0,East,4.6,-,N/A,,Overcast,100,2013-02-06 10:53:00
6:53 AM,-0.0,-9.0,66,29.93,10.0,ESE,5.8,-,N/A,,Overcast,120,2013-02-06 11:53:00
7:53 AM,1.9,-7.1,66,29.93,10.0,ESE,6.9,-,N/A,,Overcast,120,2013-02-06 12:53:00
8:53 AM,3.9,-4.0,70,29.92,6.0,SE,9.2,-,N/A,,Haze,140,2013-02-06 13:53:00
9:01 AM,5.0,-2.2,72,29.85,2.5,SE,9.2,-,0.00,Snow,Light Snow,140,2013-02-06 14:01:00
9:06 AM,5.0,-2.2,72,29.84,1.5,SSE,10.4,-,0.00,Snow,Light Snow,150,2013-02-06 14:06:00
9:22 AM,5.0,-0.4,78,29.84,0.8,SSE,10.4,-,0.00,Snow,Light Snow,150,2013-02-06 14:22:00
9:36 AM,5.0,1.4,85,29.83,1.5,SSE,10.4,-,0.00,Snow,Light Snow,150,2013-02-06 14:36:00
9:49 AM,6.8,1.4,79,29.83,1.0,SSE,11.5,-,0.00,Snow,Light Snow,150,2013-02-06 14:49:00
9:53 AM,6.1,1.0,80,29.90,1.0,SSE,11.5,-,0.00,Snow,Light Snow,150,2013-02-06 14:53:00
10:09 AM,6.8,1.4,79,29.82,0.8,SSE,9.2,-,N/A,Snow,Light Snow,150,2013-02-06 15:09:00
10:18 AM,6.8,1.4,79,29.82,1.0,SSE,11.5,-,N/A,Snow,Light Snow,150,2013-02-06 15:18:00
10:31 AM,6.8,3.2,85,29.82,0.8,SE,8.1,-,0.00,Snow,Light Snow,140,2013-02-06 15:31:00
10:53 AM,8.1,3.9,83,29.88,0.8,SE,8.1,-,0.00,Snow,Light Snow,140,2013-02-06 15:53:00
11:08 AM,8.6,5.0,85,29.79,1.0,SSE,10.4,-,0.00,Snow,Light Snow,150,2013-02-06 16:08:00
11:34 AM,10.4,6.8,85,29.78,0.5,SE,11.5,-,0.00,Fog-Snow,Light Snow,140,2013-02-06 16:34:00
11:53 AM,10.0,6.1,84,29.84,0.8,SE,9.2,-,0.00,Snow,Light Snow,140,2013-02-06 16:53:00
12:14 PM,10.4,6.8,85,29.76,1.0,SSE,10.4,-,0.00,Snow,Light Snow,150,2013-02-06 17:14:00
12:26 PM,10.4,6.8,85,29.76,0.5,SSE,10.4,-,0.00,Fog-Snow,Snow,150,2013-02-06 17:26:00
12:53 PM,12.0,8.1,84,29.82,0.8,SSE,10.4,-,0.00,Snow,Light Snow,150,2013-02-06 17:53:00
1:23 PM,12.2,10.4,92,29.76,0.8,SE,9.2,-,0.00,Snow,Light Snow,140,2013-02-06 18:23:00
1:32 PM,12.2,8.6,85,29.75,1.0,SE,8.1,-,0.00,Snow,Light Snow,140,2013-02-06 18:32:00
1:53 PM,14.0,10.0,84,29.81,1.2,SSE,6.9,-,0.00,Snow,Light Snow,150,2013-02-06 18:53:00
2:23 PM,14.0,10.4,86,29.76,0.8,ESE,6.9,-,0.00,Snow,Light Snow,120,2013-02-06 19:23:00
2:32 PM,15.8,10.4,79,29.76,0.8,SE,5.8,-,0.00,Snow,Light Snow,130,2013-02-06 19:32:00
2:51 PM,15.8,12.2,86,29.76,0.5,SE,3.5,-,0.00,Fog-Snow,Snow,130,2013-02-06 19:51:00
2:53 PM,15.1,12.0,88,29.83,0.5,SE,3.5,-,0.00,Fog-Snow,Snow,130,2013-02-06 19:53:00
3:10 PM,15.8,12.2,86,29.77,0.2,Calm,Calm,-,0.00,Fog-Snow,Snow,0,2013-02-06 20:10:00
3:25 PM,15.8,12.2,86,29.77,0.8,Calm,Calm,-,0.01,Snow,Light Snow,0,2013-02-06 20:25:00
3:41 PM,15.8,12.2,86,29.77,1.2,WSW,3.5,-,0.01,Snow,Light Snow,240,2013-02-06 20:41:00
3:43 PM,15.8,12.2,86,29.77,1.8,WSW,4.6,-,0.01,Snow,Light Snow,240,2013-02-06 20:43:00
3:50 PM,15.8,12.2,86,29.78,2.0,SW,3.5,-,0.01,Snow,Light Snow,230,2013-02-06 20:50:00
3:53 PM,16.0,12.9,88,29.85,1.5,SW,3.5,-,0.01,Snow,Light Snow,220,2013-02-06 20:53:00
4:00 PM,15.8,12.2,86,29.78,1.2,Variable,5.8,-,0.00,Snow,Light Snow,0,2013-02-06 21:00:00
4:02 PM,15.8,12.2,86,29.78,1.8,West,8.1,-,0.00,Snow,Light Snow,260,2013-02-06 21:02:00
4:05 PM,17.6,12.2,79,29.78,3.0,WSW,8.1,-,0.00,Snow,Light Snow,240,2013-02-06 21:05:00
4:14 PM,17.6,12.2,79,29.79,9.0,WSW,9.2,-,N/A,,Overcast,250,2013-02-06 21:14:00
4:23 PM,17.6,10.4,73,29.80,2.5,West,9.2,18.4,0.00,Snow,Light Snow,280,2013-02-06 21:23:00
4:26 PM,17.6,12.2,79,29.80,0.8,WNW,8.1,-,0.00,Snow,Light Snow,290,2013-02-06 21:26:00
4:37 PM,15.8,12.2,86,29.81,0.2,NW,11.5,-,0.00,Fog-Snow,Snow,310,2013-02-06 21:37:00
4:49 PM,15.8,12.2,86,29.82,1.5,West,11.5,-,0.00,Snow,Light Snow,280,2013-02-06 21:49:00
4:51 PM,15.8,12.2,86,29.82,2.5,West,10.4,-,0.00,Snow,Light Snow,280,2013-02-06 21:51:00
4:53 PM,15.1,10.9,84,29.88,4.0,WNW,11.5,-,0.00,Snow,Light Snow,290,2013-02-06 21:53:00
5:02 PM,15.8,10.4,79,29.82,9.0,WNW,10.4,-,0.00,,Overcast,290,2013-02-06 22:02:00
5:34 PM,14.0,8.6,79,29.85,1.8,NNW,19.6,25.3,0.01,Snow,Light Snow,330,2013-02-06 22:34:00
5:41 PM,12.2,6.8,79,29.85,1.5,NNW,12.7,25.3,0.01,Snow,Light Snow,340,2013-02-06 22:41:00
5:44 PM,12.2,6.8,79,29.86,2.0,NNW,16.1,21.9,0.01,Snow,Light Snow,330,2013-02-06 22:44:00
5:53 PM,10.9,6.1,81,29.94,5.0,NW,15.0,-,0.01,Snow,Light Snow,320,2013-02-06 22:53:00
6:13 PM,8.6,5.0,85,29.89,1.8,NW,18.4,24.2,0.00,Snow,Light Snow,310,2013-02-06 23:13:00
6:17 PM,8.6,3.2,79,29.89,1.2,NW,18.4,24.2,0.00,Snow,Light Snow,320,2013-02-06 23:17:00
6:24 PM,8.6,3.2,79,29.90,1.2,NNW,16.1,24.2,0.00,Snow,Light Snow,330,2013-02-06 23:24:00
6:29 PM,8.6,3.2,79,29.90,1.8,NNW,13.8,-,0.00,Snow,Light Snow,330,2013-02-06 23:29:00
6:38 PM,6.8,1.4,79,29.91,2.5,NNW,20.7,26.5,0.00,Snow,Light Snow,330,2013-02-06 23:38:00
6:53 PM,6.1,1.0,80,30.00,3.0,NNW,20.7,27.6,0.00,Snow,Light Snow,330,2013-02-06 23:53:00
7:17 PM,5.0,-4.0,66,29.95,10.0,NNW,20.7,32.2,0.00,,Overcast,330,2013-02-07 00:17:00
7:53 PM,3.0,-6.0,66,30.04,10.0,NW,12.7,24.2,0.00,,Overcast,310,2013-02-07 00:53:00
8:53 PM,1.0,-9.0,63,30.07,10.0,NW,12.7,20.7,N/A,,Scattered Clouds,320,2013-02-07 01:53:00
9:53 PM,-2.0,-11.0,66,30.10,10.0,NW,15.0,-,N/A,,Clear,320,2013-02-07 02:53:00
10:53 PM,-4.0,-11.9,69,30.12,10.0,NW,15.0,23.0,N/A,,Clear,320,2013-02-07 03:53:00
11:53 PM,-6.0,-13.0,72,30.15,10.0,NW,15.0,-,N/A,,Clear,320,2013-02-07 04:53:00